Location: Pinhead Observatory
(34.4473°N, 118.1985°W)
Time: 02:23:43
(UTC-07:00)

CZ-4C R/B - Visible Passes

Search period start: 29 August 2015 00:00
Search period end: 08 September 2015 00:00
Orbit: 763 x 1239 km, 63.4° (Epoch: 28 August)

Date Brightness Start Highest point End Pass type
(mag) Time Alt. Az. Time Alt. Az. Time Alt. Az.
29 Aug 4.7 02:28:25 10° N 02:33:52 24° NE 02:39:52 10° E visible
29 Aug 2.8 04:15:57 10° NW 04:23:11 76° WSW 04:30:56 10° SSE visible
30 Aug 5.5 01:16:36 10° NNE 01:17:35 10° NNE 01:18:58 10° NE visible
30 Aug 3.7 03:01:16 10° NNW 03:08:03 46° NE 03:15:25 10° SE visible
30 Aug 3.3 04:50:03 10° NW 04:56:41 36° WSW 05:03:31 10° S visible
30 Aug 5.1 20:12:43 10° WNW 20:15:54 15° NW 20:19:00 10° N visible
31 Aug 4.9 01:47:24 10° N 01:52:19 20° NE 01:57:46 10° E visible
31 Aug 2.8 03:34:36 10° NNW 03:41:51 90° WSW 03:49:39 10° SSE visible
31 Aug 4.2 05:25:40 10° WNW 05:30:01 16° WSW 05:33:59 10° SW visible
01 Sep 3.9 02:20:05 10° NNW 02:26:23 39° NE 02:26:23 39° NE visible
01 Sep 4.1 04:08:31 10° NW 04:23:45 - S 04:11:18 24° WNW visible
02 Sep 4.9 01:06:27 10° N 01:10:44 17° NE 01:11:22 17° NE visible
02 Sep 4.2 02:53:17 10° NNW 02:56:25 29° NNW 02:56:25 29° NNW visible
03 Sep 4.6 01:38:55 10° NNW 01:42:21 25° NNE 01:42:21 25° NNE visible
03 Sep 4.9 03:27:01 10° NW 03:27:26 12° NW 03:27:26 12° NW visible
04 Sep 5.1 00:25:36 10° N 00:28:39 14° NNE 00:28:39 14° NNE visible
04 Sep 4.7 02:12:00 10° NNW 02:13:45 19° NNW 02:13:45 19° NNW visible
05 Sep 4.9 00:57:48 10° N 01:00:18 20° N 01:00:18 20° N visible
05 Sep 5.1 23:44:58 10° NNE 23:47:00 12° NNE 23:47:00 12° NNE visible
06 Sep 5.0 01:30:46 10° NNW 01:32:08 17° NNW 01:32:08 17° NNW visible
07 Sep 5.0 00:16:43 10° N 00:18:56 17° N 00:18:56 17° N visible
07 Sep 5.2 23:05:09 10° NNE 23:05:49 10° NNE 23:05:49 10° NNE visible
